Clarksburg, WV

4:06 PM EST on December 12, 2019 (GMT -0500)
Benedum

Weather History for KCKB - June, 2019

Change the Weather History Date:

Monday, June 10, 2019

  Actual Average Record
Temperature  
Mean Temperature 72 °F -  
Max Temperature 82 °F 81 °F 99 °F (1933)
Min Temperature 62 °F 55 °F 39 °F (1988)
Cooling Degree Days 7    
Month to date cooling degree days 49  
Year to date cooling degree days 228  
Since 1 June cooling degree days 49  
Growing Degree Days 22 (Base 50)    
Moisture  
Dew Point 65 °F    
Average Humidity 76    
Maximum Humidity 84    
Minimum Humidity 67    
Precipitation  
Precipitation 0.41 in - - ()
Month to date precipitation 1.08  
Year to date precipitation 18.85  
Sea Level Pressure  
Sea Level Pressure 29.92 in    
Wind  
Wind Speed 7 mph (West)    
Max Wind Speed 21 mph    
Max Gust Speed 31 mph    
Visibility 8 miles    
Events Rain , Thunderstorm    
Averages and records for this station are not official NWS values.
T = Trace of Precipitation, MM = Missing Value Source: NWS Daily Summary

Daily Weather History Graph

Daily Weather History Graph

Search for Another Location

Airport or City:

Astronomy

Jun. 10, 2019 Rise Set
Actual Time 5:53 AM EDT 8:46 PM EDT
Civil Twilight 5:21 AM EDT 9:19 PM EDT
Nautical Twilight 4:41 AM EDT 9:59 PM EDT
Astronomical Twilight 3:54 AM EDT 10:46 PM EDT
Moon 1:39 PM EDT (6/10) 2:01 AM EDT (6/10)
Length of Visible Light 15h 57m
Length of Day
14h 52m
First Quarter, 55% of the Moon is Illuminated
Jun 10
First Quarter
Jun 17
Full
Jun 25
Last Quarter
Jul 2
New
Jul 9
First Quarter

Hourly Weather History & Observations

Time (EDT) Temp. Heat Index Dew Point Humidity Pressure Visibility Wind Dir Wind Speed Gust Speed Precip Events Conditions
12:53 AM 68.0 °F - 60.1 °F 76% 29.99 in 10.0 mi ENE 3.5 mph - 0.00 in   Overcast
1:53 AM 66.9 °F - 60.1 °F 79% 29.98 in 10.0 mi ENE 5.8 mph - N/A   Partly Cloudy
2:53 AM 66.9 °F - 60.1 °F 79% 29.96 in 10.0 mi East 6.9 mph - N/A   Partly Cloudy
3:53 AM 66.9 °F - 61.0 °F 81% 29.94 in 10.0 mi East 4.6 mph - N/A   Mostly Cloudy
4:53 AM 66.0 °F - 61.0 °F 84% 29.93 in 10.0 mi East 3.5 mph - N/A   Scattered Clouds
5:53 AM 66.0 °F - 61.0 °F 84% 29.93 in 10.0 mi ENE 3.5 mph - N/A   Partly Cloudy
6:53 AM 68.0 °F - 61.0 °F 78% 29.93 in 10.0 mi Calm Calm - N/A   Unknown
7:53 AM 69.1 °F - 62.1 °F 78% 29.93 in 10.0 mi Calm Calm - N/A   Mostly Cloudy
8:53 AM 71.1 °F - 63.0 °F 75% 29.93 in 10.0 mi North - - N/A   Unknown
9:53 AM 75.0 °F - 64.0 °F 69% 29.92 in 10.0 mi Variable 5.8 mph - N/A   Clear
10:53 AM 78.1 °F - 66.0 °F 66% 29.90 in 10.0 mi SSE 3.5 mph - N/A   Overcast
11:53 AM 79.0 °F - 66.0 °F 64% 29.89 in 10.0 mi SW 8.1 mph - N/A   Overcast
12:53 PM 78.1 °F - 66.0 °F 66% 29.89 in 10.0 mi SSW 10.4 mph - 0.00 in Rain Light Rain
1:50 PM 75.2 °F - 68.0 °F 78% 29.92 in 10.0 mi SSW 8.1 mph 19.6 mph 0.02 in Rain Light Rain
1:53 PM 75.9 °F - 69.1 °F 79% 29.87 in 10.0 mi South 6.9 mph - 0.02 in Rain Light Rain
2:23 PM 77.0 °F - 69.1 °F 76% 29.90 in 10.0 mi SSW 5.8 mph - 0.00 in Rain Light Rain
2:51 PM 78.8 °F - 69.8 °F 74% 29.89 in 10.0 mi SSW 9.2 mph - 0.00 in   Mostly Cloudy
2:53 PM 78.1 °F - 69.1 °F 74% 29.85 in 10.0 mi SSW 11.5 mph - 0.00 in   Mostly Cloudy
3:32 PM 79.0 °F - 68.0 °F 69% 29.88 in 10.0 mi SW 12.7 mph 19.6 mph N/A   Scattered Clouds
3:53 PM 81.0 °F 84.4 °F 70.0 °F 69% 29.83 in 10.0 mi SSW 6.9 mph - N/A   Partly Cloudy
4:53 PM 77.0 °F - 69.1 °F 76% 29.83 in 9.0 mi SSW 10.4 mph - 0.00 in Rain Light Rain
5:53 PM 75.9 °F - 69.1 °F 79% 29.83 in 10.0 mi SSW 9.2 mph - 0.01 in   Overcast
6:00 PM 75.9 °F - 69.1 °F 79% 29.86 in 10.0 mi SSW 9.2 mph - 0.00 in Rain , Thunderstorm Light Rain
6:04 PM 75.0 °F - 69.1 °F 82% 29.88 in 1.8 mi West 15.0 mph - 0.10 in Rain , Thunderstorm Thunderstorms and Rain
6:07 PM 73.9 °F - 69.1 °F 85% 29.87 in 0.8 mi SW 20.7 mph 31.1 mph 0.22 in Rain , Thunderstorm Heavy Thunderstorms and Rain
6:15 PM 73.0 °F - 69.1 °F 87% 29.88 in 1.0 mi West 13.8 mph 31.1 mph 0.24 in Rain , Thunderstorm Thunderstorms and Rain
6:18 PM 73.0 °F - 69.1 °F 87% 29.88 in 3.0 mi WNW 12.7 mph - 0.25 in Rain , Thunderstorm Light Rain
6:31 PM 72.0 °F - 69.1 °F 91% 29.89 in 8.0 mi WNW 11.5 mph 25.3 mph 0.25 in Rain , Thunderstorm Light Rain
6:49 PM 71.6 °F - 66.2 °F 83% 29.90 in 5.0 mi WNW 13.8 mph 24.2 mph 0.28 in Rain Rain
6:50 PM 71.1 °F - 66.9 °F 87% 29.86 in 5.0 mi NW 12.7 mph 24.2 mph 0.28 in Rain Light Rain
7:19 PM 71.1 °F - 64.9 °F 81% 29.93 in 10.0 mi NW 8.1 mph - 0.00 in   Overcast
7:33 PM 71.1 °F - 64.0 °F 78% 29.94 in 10.0 mi WNW 8.1 mph - 0.00 in   Overcast
7:53 PM 70.0 °F - 64.0 °F 81% 29.92 in 10.0 mi WNW 5.8 mph - 0.00 in   Overcast
8:53 PM 70.0 °F - 64.0 °F 81% 29.94 in 10.0 mi WNW 3.5 mph - 0.00 in Rain Light Rain
9:53 PM 70.0 °F - 63.0 °F 78% 29.95 in 10.0 mi WNW 15.0 mph 20.7 mph 0.00 in   Overcast
10:53 PM 66.9 °F - 61.0 °F 81% 29.99 in 5.0 mi NW 9.2 mph - 0.01 in Rain Light Rain
11:00 PM 66.0 °F - 61.0 °F 84% 30.04 in 2.0 mi NW 17.3 mph 23.0 mph 0.05 in Rain Heavy Rain
11:05 PM 64.9 °F - 60.1 °F 84% 30.04 in 2.0 mi NNW 18.4 mph 29.9 mph 0.07 in Rain Heavy Rain
11:14 PM 64.0 °F - 60.1 °F 87% 30.05 in 3.0 mi NW 16.1 mph 27.6 mph 0.07 in Rain Light Rain
11:28 PM 63.0 °F - 59.0 °F 87% 30.06 in 3.0 mi NNW 15.0 mph 20.7 mph 0.09 in Rain Rain
11:53 PM 62.1 °F - 57.9 °F 86% 30.04 in 8.0 mi NNW 10.4 mph - 0.09 in Rain Light Rain